Showing default

LIZZIESAT-3 (LS-3), 63233

Orbit data source: Space-Track

LIZZIESAT-3 (LS-3), 63233 is a payload satellite owned by Sidus Space (US) in SSO that was launched on Sat, 15 Mar 2025 UTC via an FALCON 9 launch vehicle from the Air Force Western Test Range (AFWTR). Payload-class satellites include a variety of spacecraft equipped with specific instruments for various scientific and technological missions. These include communications satellites like Starlink; space stations such as the ISS; scientific satellites like the Hubble; Earth observation satellites from companies like Planet Labs, Umbra, and HawkEye 360; GPS; miniature CubeSats for education and research; and military/defense satellites.

Loading next visibility...
Identifier
63233, 2025-052Z
Orbit
SSO
Country
Flag of USUS
Related business
Manufacturer
Sidus Space
Mission
Operational Commercial Technology
Bus & Motor
LIZZIESAT, Unknown motor
Mass
~100 kg wet, ~100 kg dry
Launch date (UTC)
2025-03-15 (1 year ago)
Launch vehicle
FALCON 9
Launch site
Air Force Western Test Range (AFWTR)
Object type
Payload
Rocket body
Debris
Shape & HBR
Oct Cyl + 8 Pan, 0.5 m
Radar Cross Section
1.008 m², Medium (>0.1 m² and < 1m²)

Expand to show TLE details & history
Last TLE update: 11 hours ago

TLE from 11 hours ago
0 LIZZIESAT-3 (LS-3)
1 63233U 25052Z   26166.71332391  .00004555  00000-0  20397-3 0  9994
2 63233  97.3922  58.5798 0006743 151.6723 208.4881 15.21741485 69585
Epoch: 2026-06-15T17:07Z
TLE epoch observation values (Epoch: 2026-06-15T17:07:11.185Z)
Latitude
-0.00004°
Longitude
-102.21256°
Altitude
507.759 km
Speed
7.608 km/s
True Right ascension
03h 54m 19s
True Declination
0° 00' 00"
Sunlit
Object was in daylight at epoch
Visualization orbit readout
Latitude
Unknown
Longitude
Unknown
Altitude
Unknown
Speed
Unknown
Apparent Right ascension
Unknown
Apparent Declination
Unknown
Sunlit
N/A
Visualization observer readout
Local Sidereal Time
14:48:23
Azimuth
Unknown
Elevation
Unknown
Doppler factor
Unknown
Orbital elements
Apogee altitude
502.187 km
Perigee altitude
492.914 km
Semi-major axis
6,875.688 km
Eccentricity
0.00067
Inclination
97.3922°
RAAN
58.5798°
Arg. of periapsis
151.6723°
True anomaly
208.45127°
Mean anomaly
208.4881°
Eccentric anomaly
208.46968°
Mean motion
3.80688 °/min
Orbital period
94.57 mins
BSTAR
0.00020397
Loading maneuver chart data...
Computing Atmospheric mass density...
Loading historical data...
Loading historical data...
Loading historical data...
Loading historical data...
Loading historical data...
Loading historical data...
Loading historical data...

Documentation

Showing up to 5 results
|